Regional Weather Roundup
Issued by NWS Sterling, VA

Home | Current Version | Previous Version | Graphics & Text | Print | Product List | Glossary On
Versions: 1 2 3 4 5 6 7 8 9 10 11 12 13 14 15 16 17 18 19 20 21 22 23 24 25 26 27 28 29 30 31 32 33 34 35 36 37 38 39 40 41 42 43 44 45 46 47 48 49 50
000
ASUS41 KLWX 300310
RWRLWX

REGIONAL WEATHER ROUNDUP
NATIONAL WEATHER SERVICE BALTIMORE MD/WASHINGTON DC
1100 PM EDT MON JUN 29 2015

Note: "FAIR" indicates few or no clouds below 12,000 feet
with no significant weather and/or obstructions to visibility.
 TC=TEMPERATURE CELSIUS

 * =Non NWS site. Station does not report precipitation (e.g. rain,
    snow, etc.), thunder, or fog.

DCZ001-MDZ009-015-VAZ040>042-051-053>054-300400-
WASHINGTON METRO

CITY           SKY/WX    TMP DP  RH WIND       PRES   REMARKS
WASHINGTON NAT PTCLDY    75  61  61 S7        29.95S
DULLES         PTCLDY    71  57  61 SE6       29.94S
ANDREWS AFB    PTCLDY    67  62  83 SE6       29.94F
FT BELVOIR     CLEAR     65  62  91 CALM      29.94F FOG
QUANTICO       CLEAR     75  63  66 S8        29.94F
COLLEGE PARK*  CLEAR     68  59  73 CALM      29.95S
LEESBURG*      CLEAR     72  61  68 S3        29.95S
MANASSAS*      CLEAR     70  63  78 CALM      29.94
GAITHERSBURG*  PTCLDY    66  55  68 SE6       29.99S

$$

MDZ006>007-011-014-300400-
BALTIMORE METRO

CITY           SKY/WX    TMP DP  RH WIND       PRES   REMARKS
BWI AIRPORT    PTCLDY    70  59  68 S3        29.95S
MD SCIENCE CTR   N/A     74  61  63 MISG      29.94F
MARTIN STATE   PTCLDY    73  64  73 SE9       29.96F
ANNAPOLIS      CLEAR     74  62  66 S8        29.95S
FORT MEADE*    PTCLDY    63  61  94 SE5       29.97F

$$

MDZ012-015-019>023-300400-
MARYLAND EASTERN SHORE

CITY           SKY/WX    TMP DP  RH WIND       PRES   REMARKS
OCEAN CITY     CLEAR     72  66  81 VRB3      29.99S
SALISBURY      CLEAR     67  62  84 SE6       29.98S
BAY BRIDGE AP*   N/A     73  59  60 S7        29.96S
CAMBRIDGE*     CLEAR     70  61  73 SE6       29.96F
EASTON*        CLEAR     70  62  74 SE5       30.00S

$$

MDZ017>025-300400-
SOUTHERN MARYLAND

CITY           SKY/WX    TMP DP  RH WIND       PRES   REMARKS
PATUXENT RIVER PTCLDY    72  63  73 S6        29.95F
ST INIGOES     CLEAR     76  65  68 S7        29.95F
LEONARDTOWN*   CLEAR     70  61  73 CALM      29.98S

$$

MDZ003>005-300400-
NORTH CENTRAL MARYLAND

CITY           SKY/WX    TMP DP  RH WIND       PRES   REMARKS
FREDERICK*     CLOUDY    68  61  77 CALM      29.97S
HAGERSTOWN APT CLOUDY    74  55  51 S9        29.93F
WESTMINSTER*   PTCLDY    72  55  56 S6        29.96S

$$

MDZ501>502-300400-
WESTERN MARYLAND

CITY           SKY/WX    TMP DP  RH WIND       PRES   REMARKS
OAKLAND*       CLOUDY    61 N/A N/A S10       29.97S
CUMBERLAND*    CLOUDY    72  59  64 SW5       29.95S

$$

VAZ025>031-300400-
SHENANDOAH VALLEY

CITY           SKY/WX    TMP DP  RH WIND       PRES   REMARKS
WINCHESTER*    CLOUDY    70  59  68 SE3       29.93F
FRONT ROYAL*   FAIR      70  59  68 CALM      29.93S
LURAY*         FAIR      72  61  68 SW7       29.95S
NEW MARKET*    FAIR      65  60  82 CALM      29.94R
STAUNTON*      CLEAR     70  60  69 S3        29.98S
WAYNESBORO*    FAIR      65  58  79 CALM      29.99R

$$

WVZ021-048>050-054>055-300400-
EASTERN WEST VIRGINIA PANHANDLE

CITY           SKY/WX    TMP DP  RH WIND       PRES   REMARKS
MARTINSBURG    MOCLDY    71  57  61 CALM      29.94S
PETERSBURG*    CLOUDY    65  60  85 CALM      29.94R

$$

VAZ036>039-050-300400-
CENTRAL FOOTHILLS

CITY           SKY/WX    TMP DP  RH WIND       PRES   REMARKS
CHARLOTTESVILL CLEAR     67  60  78 CALM      29.95S
CULPEPER*      CLEAR     66  61  84 CALM      29.94S
ORANGE*        CLEAR     66  63  88 CALM      29.96S
GORDONSVILLE*  FAIR      64  63  94 CALM      29.94F
WARRENTON*     FAIR      72  61  69 SE5       29.93S

$$

VAZ055>057-300400-
NORTH AND CENTRAL PIEDMONT

CITY           SKY/WX    TMP DP  RH WIND       PRES   REMARKS
FREDERICKSBRG* CLEAR     71  65  80 E5        29.94S
STAFFORD*      CLEAR     63  61  94 CALM      29.98F

$$

NCZ024-NYZ072-PAZ021-071-VAZ022-071-300400-
OTHER REGIONAL OBSERVATIONS

CITY           SKY/WX    TMP DP  RH WIND       PRES   REMARKS
NEW YORK CITY  CLEAR     72  56  57 VRB3      29.97S
PHILADELPHIA   CLEAR     74  59  59 S8        29.96S
PITTSBURGH     CLOUDY    62  59  90 SE7       29.87F
ROANOKE        MOCLDY    73  59  61 CALM      29.99S
RICHMOND       MOCLDY    74  65  73 SE8       29.95F
RALEIGH        PTCLDY    75  65  70 S3        29.97R

$$

ANZ530>537-300400-
MARINE OBSERVATIONS

STATION/POSITION TIME  TEMP    WIND        PRES
                       AIR SEA DIR/SP/G
                 (UTC) (F)     (DEG/KT/KT) (MB)
THOMAS PT LIGHT  0300   76     160/ 13/ 15   N/A
BALT KEY BRIDGE  0200   75     150/ 10/ 11 1013.9R
COVE POINT       0200   76     200/  9/ 11 1015.2R
LEWISETTA        0200   75 81  190/  7/  9 1014.4R
SOLOMONS ISLAND  0200      80                N/A
PINEY POINT      0200          180/ 13/ 14   N/A

$$




USA.gov is the U.S. government's official web portal to all federal, state and local government web resources and services.